Weather History for PHLI - June, 2013

Change the Weather History Date:

Thursday, June 20, 2013

  Actual Average Record
Temperature  
Mean Temperature 78 °F 78 °F  
Max Temperature 83 °F 84 °F 88 °F (1981)
Min Temperature 73 °F 73 °F 67 °F (1955)
Degree Days  
Heating Degree Days 0 0  
Month to date heating degree days 0 0  
Since 1 June heating degree days 0 0  
Since 1 July heating degree days 0 0  
Cooling Degree Days 13 13  
Month to date cooling degree days 270 256  
Year to date cooling degree days 1352 1495  
Since 1 June cooling degree days 270 256  
Growing Degree Days 28 (Base 50)    
Moisture  
Dew Point 67 °F    
Average Humidity 69    
Maximum Humidity 79    
Minimum Humidity 58    
Precipitation  
Precipitation T in 0.06 in 0.39 in (1961)
Month to date precipitation 0.15 1.05  
Year to date precipitation 14.95 16.89  
Snow  
Snow 0.00 in - - ()
Month to date snowfall 0.0  
Since 1 June snowfall 0.0  
Since 1 July snowfall 0.0  
Snow Depth 0.00 in    
Sea Level Pressure  
Sea Level Pressure 30.06 in    
Wind  
Wind Speed 13 mph (NE)    
Max Wind Speed 16 mph    
Max Gust Speed 20 mph    
Visibility 10 miles    
Events Rain    
T = Trace of Precipitation, MM = Missing Value Source: NWS Daily Summary

Daily Weather History Graph

Daily Weather History Graph

Search for Another Location

Airport or City:

Trip Planner

Search our weather history database for the weather conditions in past years. The results will help you decide how hot, cold, wet, or windy it might be!

Date:

Astronomy

Jun. 20, 2013 Rise Set
Actual Time 5:54 AM HST 7:23 PM HST
Civil Twilight 5:29 AM HST 7:48 PM HST
Nautical Twilight 4:59 AM HST 8:18 PM HST
Astronomical Twilight 4:28 AM HST 8:49 PM HST
Moon 4:49 PM HST (6/20) 3:16 AM HST (6/20)
Length of Visible Light 14h 18m
Length of Day
13h 28m
Waxing Gibbous, 90% of the Moon is Illuminated
Jun 20
Waxing Gibbous
Jun 23
Full
Jun 29
Last Quarter
Jul 7
New
Jul 15
First Quarter

Hourly Weather History & Observations

Time (HST) Temp. Heat Index Dew Point Humidity Pressure Visibility Wind Dir Wind Speed Gust Speed Precip Events Conditions
12:07 AM 73.4 °F - 68.0 °F 83% 30.10 in 10.0 mi ENE 13.8 mph - 0.00 in   Overcast
12:53 AM 75.0 °F - 66.9 °F 76% 30.08 in 10.0 mi ENE 15.0 mph - 0.00 in   Overcast
1:53 AM 73.9 °F - 66.9 °F 79% 30.06 in 10.0 mi ENE 12.7 mph - N/A   Scattered Clouds
2:53 AM 75.0 °F - 66.0 °F 73% 30.04 in 10.0 mi ENE 13.8 mph - N/A   Mostly Cloudy
3:53 AM 73.9 °F - 66.9 °F 79% 30.03 in 10.0 mi ENE 13.8 mph - N/A   Mostly Cloudy
4:08 AM 73.4 °F - 66.2 °F 78% 30.04 in 10.0 mi ENE 11.5 mph - 0.00 in   Mostly Cloudy
4:53 AM 73.9 °F - 64.9 °F 73% 30.03 in 10.0 mi ENE 10.4 mph - 0.00 in   Partly Cloudy
5:53 AM 73.9 °F - 66.0 °F 76% 30.04 in 10.0 mi NE 12.7 mph - N/A   Scattered Clouds
6:53 AM 75.9 °F - 66.0 °F 71% 30.05 in 10.0 mi ENE 10.4 mph - N/A   Scattered Clouds
7:53 AM 78.1 °F - 66.0 °F 66% 30.06 in 10.0 mi NE 11.5 mph - N/A   Scattered Clouds
8:53 AM 80.1 °F 82.1 °F 66.0 °F 62% 30.07 in 10.0 mi NE 13.8 mph - N/A   Partly Cloudy
9:53 AM 81.0 °F 83.0 °F 66.0 °F 60% 30.08 in 10.0 mi NE 12.7 mph - N/A   Scattered Clouds
10:53 AM 82.0 °F 84.1 °F 66.0 °F 58% 30.08 in 10.0 mi NE 12.7 mph - N/A   Scattered Clouds
11:53 AM 82.0 °F 84.1 °F 66.0 °F 58% 30.07 in 10.0 mi NE 13.8 mph - N/A   Scattered Clouds
12:53 PM 82.0 °F 84.5 °F 66.9 °F 60% 30.06 in 10.0 mi NE 11.5 mph - N/A   Partly Cloudy
1:53 PM 81.0 °F 83.0 °F 66.0 °F 60% 30.05 in 10.0 mi NE 12.7 mph - 0.00 in   Clear
2:53 PM 81.0 °F 83.0 °F 66.0 °F 60% 30.05 in 10.0 mi NE 13.8 mph - N/A   Clear
3:53 PM 81.0 °F 83.3 °F 66.9 °F 62% 30.04 in 10.0 mi NE 12.7 mph - N/A   Clear
4:53 PM 80.1 °F 82.3 °F 66.9 °F 64% 30.04 in 10.0 mi NE 13.8 mph - N/A   Clear
5:53 PM 79.0 °F - 66.9 °F 66% 30.04 in 10.0 mi NE 13.8 mph - N/A   Scattered Clouds
6:53 PM 75.9 °F - 66.9 °F 74% 30.05 in 10.0 mi NE 13.8 mph - N/A   Partly Cloudy
7:53 PM 75.9 °F - 68.0 °F 76% 30.06 in 10.0 mi NE 12.7 mph - N/A   Mostly Cloudy
8:53 PM 73.9 °F - 68.0 °F 82% 30.09 in 8.0 mi NNE 16.1 mph - 0.01 in Rain Light Rain
9:11 PM 73.4 °F - 68.0 °F 83% 30.09 in 10.0 mi NNE 8.1 mph - 0.00 in   Overcast
9:53 PM 75.0 °F - 69.1 °F 82% 30.09 in 10.0 mi ENE 13.8 mph - 0.00 in   Mostly Cloudy
10:08 PM 75.2 °F - 69.8 °F 83% 30.10 in 10.0 mi ENE 12.7 mph - N/A   Scattered Clouds
10:41 PM 75.2 °F - 69.8 °F 83% 30.11 in 10.0 mi ENE 13.8 mph - N/A   Overcast
10:53 PM 75.0 °F - 68.0 °F 79% 30.10 in 10.0 mi ENE 12.7 mph - N/A   Overcast
11:53 PM 75.0 °F - 68.0 °F 79% 30.09 in 10.0 mi ENE 13.8 mph - N/A   Overcast